Weather History for Montreal Mirabel, QC

Change the Weather History Date:

Tuesday, March 5, 2013

  Actual Average Record
Temperature  
Mean Temperature 28 °F -  
Max Temperature 33 °F 27 °F 41 °F (2011)
Min Temperature 23 °F 11 °F -2 °F (2007)
Degree Days  
Heating Degree Days 37    
Moisture  
Dew Point 24 °F    
Average Humidity 86    
Maximum Humidity 93    
Minimum Humidity 75    
Precipitation  
Precipitation 0.00 in - - ()
Sea Level Pressure  
Sea Level Pressure 30.09 in    
Wind  
Wind Speed 6 mph ()    
Max Wind Speed 12 mph    
Max Gust Speed 20 mph    
Visibility 11.3 miles    
Events Snow    
Averages and records for this station are not official NWS values.
T = Trace of Precipitation, MM = Missing Value Source: Averaged Metar Reports

Daily Weather History Graph

Daily Weather History Graph

Search for Another Location

Airport:

Trip Planner

Search our weather history database for the weather conditions in past years. The results will help you decide how hot, cold, wet, or windy it might be!

Date:

Astronomy

Mar. 05, 2013 Rise Set
Actual Time 6:27 AM EST 5:48 PM EST
Civil Twilight 5:57 AM EST 6:18 PM EST
Nautical Twilight 5:23 AM EST 6:52 PM EST
Astronomical Twilight 4:48 AM EST 7:27 PM EST
Moon 1:50 AM EST (3/5) 11:11 AM EST (3/5)
Length of Visible Light 12h 21m
Length of Day
11h 21m
Last Quarter, 41% of the Moon is Illuminated
Mar 5
Last Quarter
Mar 11
New
Mar 19
First Quarter
Mar 27
Full
Apr 3
Last Quarter

Hourly Weather History & Observations

Time (EST) Temp. Windchill Dew Point Humidity Pressure Visibility Wind Dir Wind Speed Gust Speed Precip Events Conditions
12:00 AM 24.8 °F 15.3 °F 21.2 °F 86% 29.91 in 25.0 mi WSW 9.2 mph - N/A   Overcast
1:00 AM 24.8 °F 15.3 °F 21.2 °F 86% 29.93 in 25.0 mi WSW 9.2 mph - N/A   Overcast
2:00 AM 24.8 °F 16.1 °F 21.2 °F 86% 29.94 in 15.0 mi WSW 8.1 mph - N/A Snow Light Snow
3:00 AM 24.8 °F 15.3 °F 21.2 °F 86% 29.96 in 10.0 mi WSW 9.2 mph - N/A Snow Light Snow
4:00 AM 24.8 °F 15.3 °F 21.2 °F 86% 29.99 in 15.0 mi WSW 9.2 mph - N/A Snow Light Snow
5:00 AM 23.0 °F 13.9 °F 21.2 °F 93% 30.01 in 6.0 mi SW 8.1 mph - N/A Snow Light Snow
5:46 AM 23.0 °F 13.9 °F 21.2 °F 93% 30.03 in 2.0 mi WSW 8.1 mph - N/A Snow Light Snow
6:00 AM 23.0 °F 15.8 °F 21.2 °F 93% 30.04 in 3.0 mi WSW 5.8 mph - N/A Snow Light Snow
6:29 AM 23.0 °F 13.1 °F 21.2 °F 93% 30.05 in 4.0 mi WSW 9.2 mph - N/A Snow Light Snow
7:00 AM 23.0 °F 14.7 °F 21.2 °F 93% 30.07 in 3.0 mi SW 6.9 mph - N/A Snow Light Snow
8:00 AM 23.0 °F 13.9 °F 21.2 °F 93% 30.09 in 3.0 mi WSW 8.1 mph - N/A Snow Light Snow
9:00 AM 24.8 °F 16.9 °F 21.2 °F 86% 30.11 in 5.0 mi WSW 6.9 mph - N/A Snow Light Snow
9:40 AM 26.6 °F 21.2 °F 23.0 °F 86% 30.12 in 5.0 mi SW 4.6 mph - N/A Snow Light Snow
10:00 AM 26.6 °F 20.0 °F 23.0 °F 86% 30.12 in 8.0 mi WSW 5.8 mph - N/A Snow Light Snow
11:00 AM 26.6 °F 21.2 °F 23.0 °F 86% 30.12 in 4.0 mi WSW 4.6 mph - N/A Snow Light Snow
12:00 PM 30.2 °F 26.7 °F 24.8 °F 80% 30.12 in 15.0 mi SW 3.5 mph - N/A Snow Light Snow
1:00 PM 32.0 °F - 26.6 °F 80% 30.12 in 15.0 mi Calm Calm - N/A Snow Light Snow
2:00 PM 32.0 °F - 26.6 °F 80% 30.13 in 15.0 mi Calm Calm - N/A Snow Light Snow
3:00 PM 33.8 °F 30.8 °F 26.6 °F 75% 30.14 in 20.0 mi South 3.5 mph - N/A   Mostly Cloudy
4:00 PM 32.0 °F 27.5 °F 26.6 °F 80% 30.16 in 20.0 mi South 4.6 mph - N/A   Scattered Clouds
5:00 PM 33.8 °F - 28.4 °F 81% 30.16 in 20.0 mi Calm Calm - N/A   Partly Cloudy
6:00 PM 32.0 °F - 26.6 °F 80% 30.18 in 20.0 mi Calm Calm - N/A   Partly Cloudy
7:00 PM 28.4 °F - 26.6 °F 93% 30.18 in 20.0 mi Calm Calm - N/A   Mostly Cloudy
8:00 PM 30.2 °F 26.7 °F 26.6 °F 86% 30.18 in 25.0 mi NNE 3.5 mph - N/A   Mostly Cloudy
9:00 PM 30.2 °F 26.7 °F 26.6 °F 86% 30.17 in 20.0 mi NNE 3.5 mph - N/A   Mostly Cloudy
10:00 PM 33.8 °F 26.4 °F 28.4 °F 81% 30.16 in 25.0 mi ENE 9.2 mph - N/A   Overcast
11:00 PM 33.8 °F 25.3 °F 30.2 °F 87% 30.17 in 25.0 mi ENE 11.5 mph 19.6 mph N/A   Overcast